Regional Weather Roundup
Issued by NWS Newport/Morehead, NC

Home | Current Version | Previous Version | Text Only | Print | Product List | Glossary On
Versions: 1 2 3 4 5 6 7 8 9 10 11 12 13 14 15 16 17 18 19 20 21 22 23 24 25 26 27 28 29 30 31 32 33 34 35 36 37 38 39 40 41 42 43 44 45 46 47 48 49 50
000
ASUS42 KMHX 292125
RWRMHX
WEATHER ROUNDUP FOR EASTERN NORTH CAROLINA
NATIONAL WEATHER SERVICE NEWPORT/MOREHEAD CITY NC
500 PM EDT SUN MAY 29 2016

NOTE: "FAIR" INDICATES FEW OR NO CLOUDS BELOW 12,000 FEET
WITH NO SIGNIFICANT WEATHER AND/OR OBSTRUCTIONS TO VISIBILITY

NCZ015>017-031-032-045>047-102-103-292200-
NORTH COAST

CITY           SKY/WX    TMP DP  RH WIND       PRES   REMARKS
EDENTON        CLOUDY   N/A N/A N/A SE6       30.04F
ELIZABETH CITY CLOUDY    77  73  87 CALM      30.05F
KITTY HAWK     PTCLDY    77  70  79 SE5       30.06S
MANTEO         NOT AVBL

$$

NCZ045>047-081-094-103-104-292200-
CENTRAL COAST

CITY           SKY/WX    TMP DP  RH WIND       PRES   REMARKS
FRISCO         MOSUNNY   83  74  74 S9        30.07S

$$

NCZ095-097-098-100-101-292200-
SOUTHERN COAST

CITY           SKY/WX    TMP DP  RH WIND       PRES   REMARKS
BEAUFORT       MOSUNNY   80  73  79 S12       30.03F
CEDAR ISLAND   NOT AVBL
JACKSONVILLE   PTSUNNY   80  71  74 SE15      30.01S
PINEY ISLAND   NOT AVBL
WILMINGTON     MOSUNNY   78  73  84 SE6       29.98F


$$

NCZ011>013-027>030-043-044-078>080-089-090>093-098-292200-
COASTAL PLAIN

CITY           SKY/WX    TMP DP  RH WIND       PRES   REMARKS
AHOSKIE        PTSUNNY   79  73  82 SE7       30.03F
CLINTON        MOSUNNY   79  75  88 E3        30.00S
ELIZABETHTOWN  MOSUNNY   80  73  78 SE7       29.97S
GOLDSBORO      MOSUNNY   86  71  60 SE12      29.99R
GREENVILLE     LGT RAIN  82  73  74 SE6       30.03S
HAVELOCK       PTSUNNY   82  72  71 S9G18     30.04S
KENANSVILLE    CLOUDY    78  70  77 CALM      30.02R
KINSTON        MOSUNNY   86  70  58 SE9       30.02S
NEW BERN       PTSUNNY   81  69  67 S14       30.03F
RICHLANDS      PTSUNNY   80  73  79 SE9       30.02R
ROCKY MOUNT    LGT RAIN  83  73  72 VRB6      30.01F
WASHINGTON     MOSUNNY   83  72  69 SE9       30.02S
WHITEVILLE     PTSUNNY   79  73  80 E7        29.97S

$$

AMZ130-135-150-152-154-156-158-170-250-252-270-ANZ085-086-088-633-658-670-292200-
MARINE OBSERVATIONS

STATION/POSITION TIME  TEMP    WIND        PRES    WAVE   SWELL
                       AIR SEA DIR/SP/G            HT/PER HT/PER
                 (UTC) (F)     (DEG/KT/KT) (MB)    (FT/S) (FT/S)
CHESAPEAKE LIGHT 2100   72     160/ 17/ 18 1018.5
64 E VA BEACH    2050   70 65  120/  6/  8 1018.6    4/ 8   3/ 8
DUCK             2100   72 64  140/ 17/ 19 1017.1
2 E DUCK         2011      68                N/A     3/ 8
OREGON INLET     2100   80 79  150/ 14/ 18 1018.0
13E OREGON INLT  2100      71                N/A     4/ 6   2/ 8
HATTERAS CG      2100   77 77  160/  6/  8 1017.6
DIAMOND BUOY     2050   79 78  160/ 17/ 21 1017.6    6/ 7   2/ 8
CAPE LOOKOUT     2100   77     140/ 10/ 11 1016.4
BEAUFORT LAB     2100   78 75  160/  9/ 12 1016.1
30 SE NEW RVR IN 2025      75                N/A     7/ 7
27 SE WRIGHTSVLE 2108   79 76  160/ 14/ 19 1015.0
5 SE WRIGHTSVLE  2008   77 75  150/ 12/ 17 1016.1
225 S CAPE HAT   2050   76 76  130/ 12/ 14 1018.4    4/ 8   3/ 8
41 SE CHARLESTON 2050   72 78  210/ 17/ 19 1012.8    6/ 8

$$



USA.gov is the U.S. government's official web portal to all federal, state and local government web resources and services.